Location: Del Amo
(33.8464°N, 118.2104°W)
Time: 22:10:57
(UTC+00:00)

Vanguard 3 - Pass Details

Date: 18 September 2024
Orbit: 507 x 3223 km, 33.3° (Epoch: 14 October)

Event Time Altitude Azimuth Distance (km) Brightness Sun altitude
Exits shadow 10:21:33 16° 165° (SSE) 4,592 10.7 -39.2°
Maximum altitude 10:29:05 23° 131° (SE) 4,599 11.0 -38.0°
Drops below altitude 10° 10:41:45 10° 89° (E) 6,103 12.2 -35.8°
Sets 10:48:16 0° 77° (ENE) 7,180 12.9 -34.6°
